Wind_Speed
14 14 11 9 9 8 7 6 7 8 8 8 8 8 8 8 8 8 7 9 10 9 8 9 11 12 12 12 10 11 11 9 8 7 7 7 5 4 2 2 2 3 3 3 3 3 2 0 2 4 5 5 5 7 7 7 6 5 7 7 7 7 6
15 14 12 10 9 8 7 6 8 8 7 8 8 8 9 8 8 8 7 8 11 12 12 10 9 9 10 10 10 11 11 9 8 7 7 8 7 5 3 2 3 6 6 5 4 4 3 2 2 3 4 3 3 6 8 6 5 5 6 8 8 9 9
16 15 13 12 10 9 8 7 7 7 7 8 8 8 8 9 8 8 8 8 10 11 11 10 9 9 9 9 10 10 10 9 10 9 10 9 7 5 5 4 3 1 3 4 3 1 3 3 2 3 4 4 3 5 6 6 5 5 6 8 8 8 9
17 16 16 14 11 10 9 8 7 7 7 7 7 7 8 8 8 8 8 8 8 9 10 10 9 9 9 9 9 10 10 10 10 11 11 11 8 6 8 10 10 9 7 6 7 7 6 3 3 4 6 9 9 9 7 5 4 4 6 8 10 10 9
18 17 17 15 13 11 10 9 9 8 8 7 7 7 7 7 7 8 8 7 8 8 9 8 9 9 8 9 9 10 10 10 10 10 10 10 9 9 9 9 9 9 9 9 9 9 9 8 6 4 7 11 10 11 13 9 6 8 10 10 9 9 9
18 16 17 16 14 12 11 10 10 10 9 9 8 7 7 6 6 7 6 6 6 7 7 8 8 9 8 9 10 10 10 10 10 11 10 10 10 9 9 8 8 9 9 8 7 7 6 7 8 5 7 10 8 10 14 12 12 12 13 11 7 6 8
18 16 16 15 14 13 12 11 10 10 10 10 9 8 7 7 6 6 5 5 5 5 6 7 8 8 8 9 9 9 10 10 9 10 10 10 9 8 9 8 8 8 8 7 7 7 6 7 8 8 8 9 9 10 11 12 13 10 7 7 5 3 2
18 16 15 15 14 13 12 11 10 10 10 10 10 9 8 8 7 6 6 5 5 5 5 6 6 7 8 8 8 8 8 8 8 8 9 9 9 8 8 8 8 8 7 7 7 7 7 7 7 8 7 6 6 7 7 10 13 11 12 10 6 6 10
18 16 14 14 15 12 11 12 10 8 10 10 10 10 9 9 8 7 7 6 6 5 5 6 5 5 7 7 7 8 7 7 8 7 7 7 8 7 8 9 8 6 5 5 6 5 5 6 5 5 6 5 4 4 4 7 8 9 15 15 11 12 15
18 17 14 13 15 13 10 11 10 8 8 10 11 11 9 9 9 8 8 7 6 6 5 6 5 5 6 6 6 7 6 6 6 6 6 6 6 5 6 7 6 4 5 5 3 3 4 4 4 3 4 4 4 3 3 4 5 7 12 14 12 12 15
17 17 15 12 14 15 10 10 10 9 8 8 10 11 9 10 10 9 9 9 8 7 7 6 6 6 6 6 6 6 6 6 6 6 6 5 5 5 4 5 5 4 5 5 3 3 4 4 4 4 4 3 3 3 2 3 4 6 11 14 15 15 17
14 14 13 11 12 14 12 9 10 10 9 8 10 11 10 11 11 11 11 10 10 9 9 9 8 7 7 7 7 6 6 6 6 5 5 5 4 4 4 4 5 4 4 5 4 3 4 5 4 5 6 5 4 4 3 4 3 5 11 15 16 16 17
13 11 10 8 7 9 9 8 8 8 10 9 9 10 11 12 13 13 12 12 12 12 11 11 11 9 9 8 8 8 7 7 7 6 5 5 5 4 3 3 2 2 3 5 4 3 4 4 3 4 4 3 4 4 5 6 5 8 13 15 15 16 15
11 10 10 9 7 6 7 6 7 7 9 11 11 11 11 12 14 14 14 14 14 14 13 13 13 12 11 11 10 10 9 9 9 8 7 6 6 5 4 3 2 1 1 3 3 3 4 5 5 6 5 3 4 4 5 7 7 9 13 14 14 16 16
9 9 10 10 9 9 8 6 8 9 9 11 12 13 13 13 14 15 15 16 16 16 15 16 16 14 14 14 13 12 12 12 11 11 10 9 7 7 6 4 4 3 2 1 2 2 4 5 5 7 6 5 6 7 6 9 10 10 13 15 16 17 16
11 11 12 11 9 9 10 9 8 10 12 11 10 12 13 14 16 16 17 17 17 17 17 17 17 17 16 16 15 15 15 13 13 13 12 10 10 9 8 6 5 5 4 2 1 2 3 4 4 5 6 7 8 9 8 9 10 11 13 15 16 16 16
12 13 15 14 12 12 14 14 12 12 12 13 13 12 13 14 15 17 19 19 18 18 18 18 18 18 18 17 17 17 16 15 14 14 13 11 11 10 9 8 7 6 6 4 2 2 2 2 3 4 6 7 8 9 9 8 9 11 13 15 15 16 17
10 11 14 15 14 14 15 15 15 15 15 14 14 14 16 18 18 19 20 21 21 20 19 19 18 18 17 17 17 17 16 16 15 15 14 12 12 11 10 9 8 7 6 5 3 3 2 2 3 4 5 7 8 10 11 11 12 13 14 16 18 18 18
4 6 8 10 12 14 16 17 18 20 19 17 15 17 22 23 22 20 20 20 22 22 21 20 19 19 17 16 17 17 15 15 16 15 14 13 13 12 11 9 8 8 7 6 5 4 3 3 3 4 5 7 8 10 11 12 12 13 15 17 18 18 19
3 3 4 4 6 10 12 15 18 21 22 21 20 23 26 25 22 22 22 22 22 22 21 20 18 19 19 18 18 18 17 16 16 16 15 14 13 12 12 10 9 9 8 6 6 5 5 4 4 5 6 7 8 9 10 11 12 13 15 17 18 18 19
4 3 3 4 5 7 10 12 14 17 20 22 24 26 26 25 23 21 21 22 22 21 21 21 19 17 17 18 20 20 19 18 17 16 15 14 13 12 12 11 9 9 8 8 9 9 7 6 7 8 8 7 7 8 10 11 11 13 14 16 17 18 18
4 3 3 4 5 7 9 11 12 15 18 21 24 25 25 24 23 20 19 22 24 23 23 23 21 19 19 20 22 21 20 19 18 16 15 14 13 12 12 10 10 10 10 11 12 11 9 9 9 9 9 8 8 8 9 10 11 12 14 15 16 17 17
1 2 2 2 3 4 6 9 12 14 16 19 20 21 22 22 22 21 21 23 25 27 26 24 23 23 23 24 24 22 20 19 17 16 15 14 13 12 11 10 11 12 13 13 13 12 12 10 8 8 9 8 8 9 9 10 11 12 13 14 15 16 16
1 1 2 2 2 3 4 5 7 9 11 13 14 15 17 18 19 20 21 23 25 27 27 26 25 24 24 25 26 23 20 19 17 16 15 14 13 13 12 11 11 13 14 14 13 13 11 9 9 10 9 7 8 9 10 12 13 14 14 15 15 16 16
2 2 2 2 3 4 4 4 6 7 8 9 10 11 13 15 16 17 18 19 21 23 25 25 25 23 21 23 26 24 20 18 17 16 15 14 13 13 12 12 11 11 12 12 12 10 9 10 12 11 9 9 9 11 12 14 16 17 17 16 16 16 17
3 2 2 3 4 4 5 6 7 7 8 9 9 10 11 13 14 16 16 16 17 18 21 23 24 23 21 22 25 23 19 17 17 16 14 13 13 12 11 12 11 9 9 9 10 10 10 12 12 10 8 9 10 12 14 16 18 20 21 21 21 19 18
3 3 3 4 5 6 7 8 8 8 8 9 10 11 12 13 14 15 16 16 15 16 18 19 21 23 24 24 26 23 18 16 16 15 13 13 13 12 10 10 9 8 8 9 10 10 10 9 9 7 7 8 10 13 15 17 19 20 22 24 26 26 24
3 3 4 5 6 7 7 8 9 9 9 10 12 13 13 14 15 16 16 16 16 16 16 16 18 22 25 26 27 23 16 14 15 14 12 13 13 12 10 9 9 9 10 11 11 12 11 11 11 11 11 12 14 16 16 17 19 20 20 22 25 27 27
3 4 5 6 6 7 8 8 9 9 10 11 12 13 14 14 15 15 15 15 15 15 14 14 17 21 24 26 26 22 17 14 15 14 11 11 11 10 9 9 10 11 12 12 12 13 13 14 15 15 15 16 17 18 18 18 18 18 20 21 22 24 25
5 6 6 7 7 8 8 8 9 10 11 12 13 13 14 15 15 15 14 13 14 14 13 15 18 20 23 25 25 21 18 16 15 12 10 9 9 9 9 10 11 11 11 11 12 13 14 16 18 18 18 18 18 18 19 19 19 19 19 20 22 23 24
7 7 7 8 9 9 9 10 11 11 12 14 14 14 14 14 15 14 12 10 11 13 14 16 19 21 23 24 22 18 15 14 12 9 8 7 8 9 10 11 11 12 12 13 14 15 16 17 16 15 15 16 17 19 20 20 20 19 18 19 19 20 21
8 9 9 10 10 10 10 11 12 13 14 15 15 14 14 14 13 10 9 8 9 12 14 17 20 21 22 22 19 15 11 10 9 8 8 8 8 8 8 9 9 11 13 15 15 15 15 14 14 13 13 15 17 19 20 19 19 19 20 22 23 24 25
10 11 11 11 11 11 11 12 13 14 14 14 15 15 13 10 6 4 4 6 8 9 12 17 20 21 20 19 17 14 10 8 7 7 6 6 5 5 5 8 10 10 11 13 13 12 12 12 13 14 16 17 19 20 21 22 23 24 26 27 28 28 28
12 12 12 12 12 11 12 13 14 15 15 15 14 11 6 3 5 6 5 6 7 8 13 19 21 20 19 18 16 14 11 8 6 5 4 3 3 4 5 9 10 8 8 9 9 9 12 14 16 19 20 20 20 20 21 23 23 23 24 24 24 23 22
13 13 13 13 13 13 13 14 15 15 15 13 7 3 4 6 7 7 6 7 8 12 17 22 22 21 19 17 14 11 8 6 3 3 3 4 6 7 8 10 10 6 6 9 11 13 17 19 20 20 19 17 17 18 18 19 21 21 20 20 20 19 19
15 15 15 15 15 15 14 14 15 15 14 9 4 6 6 7 9 9 9 9 11 16 21 23 22 20 18 14 10 7 6 4 4 5 6 8 8 8 8 9 9 7 9 13 16 18 18 17 15 14 13 14 15 16 17 19 21 20 19 18 18 19 18
16 16 16 16 16 15 14 15 15 13 10 6 5 7 7 8 9 10 12 12 15 19 22 21 18 16 14 12 8 6 5 4 4 4 5 6 6 7 8 10 11 13 16 18 18 16 14 12 11 11 12 14 16 17 18 20 20 19 18 18 18 19 18
Wind_Direction
128 122 123 123 117 118 115 108 104 94 82 80 75 71 71 65 66 65 53 46 47 58 65 56 50 53 63 63 64 70 69 76 89 96 106 110 114 107 102 142 173 190 168 147 153 170 173 230 263 283 301 289 267 264 257 263 282 293 292 290 292 286 278
131 132 134 133 130 130 123 114 109 100 90 88 83 79 78 75 72 70 64 52 48 57 65 66 62 58 60 60 60 63 65 69 70 82 102 102 104 97 82 164 213 219 204 189 182 192 200 215 245 259 273 268 262 264 254 256 273 287 293 286 283 278 276
141 146 143 142 142 142 133 125 118 108 103 96 93 94 89 85 81 74 69 61 57 61 64 68 73 70 69 67 65 64 64 66 63 69 82 82 88 79 50 41 20 342 203 182 153 213 254 247 275 300 286 267 270 279 262 258 280 293 288 281 279 277 279
154 154 147 150 153 153 149 144 138 127 119 111 109 108 100 96 93 86 78 69 67 68 67 71 75 71 69 68 69 69 68 67 63 66 70 67 70 63 49 46 40 38 44 51 46 24 6 354 346 344 331 320 318 321 306 278 293 314 290 276 272 272 278
163 160 154 159 161 160 162 157 151 143 136 131 127 123 113 105 101 95 86 79 80 76 71 75 79 77 74 72 71 69 69 69 68 71 70 61 63 62 54 53 51 48 46 43 37 28 24 17 5 345 332 334 330 333 336 325 302 290 275 269 269 267 269
167 166 161 164 166 165 169 167 163 157 152 149 147 144 134 121 111 102 94 92 95 91 90 88 86 83 81 80 77 70 71 69 66 69 67 60 61 58 51 53 55 51 48 46 38 32 32 17 8 357 339 344 341 329 328 315 296 283 267 256 252 252 265
170 170 167 170 170 170 174 175 174 168 164 161 159 163 152 137 129 119 116 115 107 105 107 104 100 95 90 91 90 83 79 77 75 75 72 70 68 62 59 60 59 53 44 40 36 30 29 21 15 14 356 343 333 317 310 310 313 313 295 268 247 234 268
173 174 172 174 174 176 178 179 181 176 171 169 168 175 168 152 149 143 141 138 126 123 116 107 105 100 97 101 103 99 93 90 88 81 77 80 77 77 82 73 64 63 48 37 39 31 27 28 20 13 4 343 332 321 318 329 329 337 358 360 357 29 49
177 179 179 178 179 184 183 180 186 185 176 174 175 182 175 162 166 162 155 155 147 146 135 121 121 116 112 112 110 108 103 95 93 85 79 81 76 80 90 80 71 71 62 52 48 40 33 30 23 11 359 350 349 335 326 337 331 342 360 359 354 15 33
177 181 184 183 181 185 187 181 185 190 182 176 178 188 184 171 178 173 169 174 166 163 160 146 152 150 134 129 124 121 116 112 110 103 95 89 82 79 78 77 76 62 61 66 46 37 47 31 31 28 2 354 350 338 327 334 329 333 345 345 345 355 2
179 181 186 188 181 183 189 184 187 194 189 180 182 192 189 181 189 185 181 190 184 178 178 168 171 168 153 151 146 138 139 133 122 115 114 108 101 90 71 72 73 41 37 46 21 23 35 21 19 7 345 338 324 323 328 322 309 312 330 336 338 340 339
181 180 181 184 175 175 185 190 194 197 194 190 189 196 198 193 198 196 193 199 196 191 188 183 184 179 172 174 165 161 167 150 136 140 139 128 119 107 88 81 75 47 26 26 18 17 7 357 5 359 348 341 323 314 306 302 289 297 320 325 321 326 330
185 182 179 180 165 166 183 195 202 201 200 202 199 199 202 202 206 206 203 205 204 200 197 192 193 189 186 189 182 180 182 166 161 168 157 146 145 134 117 107 83 29 26 28 23 14 353 338 322 317 322 318 308 297 283 281 268 280 301 310 310 314 317
186 182 177 181 178 180 190 204 229 229 210 209 212 210 209 210 215 214 210 211 210 207 204 201 199 194 193 194 191 192 189 179 179 182 175 173 169 164 159 151 156 190 36 22 13 358 341 331 312 298 286 271 284 294 291 291 290 293 301 307 307 306 306
185 186 182 184 188 197 203 213 244 254 239 224 216 215 220 223 225 224 221 218 216 213 209 207 205 200 198 198 195 195 192 186 189 188 183 184 182 179 179 170 166 180 196 319 346 345 337 340 340 328 322 325 322 318 316 309 307 306 305 306 306 304 303
183 187 191 190 184 192 205 213 235 252 254 249 234 224 231 232 228 231 233 228 225 221 215 212 211 206 204 204 200 199 197 191 193 194 187 188 192 187 183 180 179 190 205 225 267 296 318 324 330 332 328 328 322 312 305 300 296 291 290 295 301 303 304
194 194 197 200 195 193 201 208 222 238 244 248 245 237 238 237 232 234 236 233 232 229 222 218 216 211 210 211 206 203 201 197 197 199 194 192 196 191 186 189 190 195 202 200 220 262 293 307 310 325 326 321 318 315 313 309 302 299 298 300 302 302 303
204 202 197 199 194 187 187 194 213 233 236 235 241 244 243 240 237 237 238 235 234 233 229 224 220 217 216 217 214 209 205 202 201 203 199 197 198 191 185 191 196 196 199 198 206 230 249 279 303 315 317 316 313 313 314 312 309 308 305 302 301 301 301
210 214 201 199 195 189 188 193 208 224 227 223 232 248 250 243 237 240 245 244 240 237 234 228 222 219 218 221 220 214 210 210 207 205 204 200 199 195 190 193 198 200 202 202 203 217 236 253 281 295 298 304 307 308 310 309 307 305 301 297 296 297 297
216 229 215 212 212 211 216 222 226 230 231 228 230 240 245 243 243 249 253 251 246 242 241 240 235 227 220 219 221 216 213 214 211 209 207 202 200 201 200 198 199 203 206 206 206 207 211 226 250 267 277 287 294 299 303 304 303 301 299 298 295 294 294
185 207 227 221 219 227 239 248 245 240 237 235 234 237 240 240 242 247 253 256 254 247 243 242 244 245 236 226 221 217 214 213 212 211 208 203 203 203 199 197 201 204 207 210 211 209 219 251 264 261 263 271 282 294 300 301 301 299 297 296 294 294 295
167 183 215 218 214 221 230 237 238 235 234 233 235 237 238 238 237 234 240 250 252 247 242 236 235 247 254 241 225 215 212 213 212 210 206 202 203 201 197 200 205 207 214 221 220 226 253 276 273 266 270 272 272 280 289 294 297 299 299 297 295 297 298
172 187 206 214 220 223 227 229 227 227 230 234 240 243 242 243 243 240 239 243 246 246 246 243 234 235 244 241 227 214 209 211 211 209 204 200 202 202 201 207 211 213 222 230 234 249 270 278 271 273 280 276 275 280 285 289 290 292 293 292 292 294 296
219 246 240 245 249 245 246 246 238 234 236 241 247 248 245 244 245 241 236 237 243 247 247 246 242 237 238 235 224 210 201 204 208 208 203 200 203 203 201 209 219 223 229 238 248 261 273 277 280 289 289 280 279 280 280 283 284 284 284 283 283 286 289
265 269 260 268 277 273 272 273 267 264 263 261 259 253 248 246 245 244 238 234 239 245 245 245 242 238 235 231 219 205 195 198 203 203 201 200 202 204 204 211 221 228 233 240 250 260 270 278 286 292 289 283 282 281 281 282 281 279 277 275 276 277 280
280 287 281 280 289 289 283 279 277 279 279 278 275 267 260 257 254 253 250 242 237 240 242 241 237 232 228 223 214 201 194 196 196 196 199 200 202 205 207 210 217 226 235 244 252 256 262 272 280 284 280 280 285 288 288 286 283 280 275 271 269 269 273
272 293 301 299 298 294 290 288 290 290 285 281 280 273 265 263 261 258 255 250 243 239 238 236 232 227 221 215 208 199 192 192 191 194 202 204 204 206 207 210 218 227 237 247 255 258 257 259 266 278 284 286 290 292 292 291 289 285 278 271 266 266 268
247 269 283 289 291 290 291 293 293 290 285 280 279 276 269 263 261 259 257 253 249 245 238 232 229 224 215 208 203 196 190 190 190 194 202 201 199 205 214 224 231 236 243 252 258 258 256 252 256 269 281 285 287 288 288 289 289 287 284 279 275 273 273
252 260 270 276 282 284 286 289 290 287 283 278 274 274 273 268 263 260 257 253 249 246 236 226 224 219 208 202 198 191 185 182 182 186 192 194 200 213 226 235 238 244 251 258 260 259 260 263 267 275 281 284 286 286 286 289 287 284 283 282 280 280 280
258 260 264 267 273 277 279 281 281 280 280 278 273 270 271 271 269 266 263 254 244 238 226 214 213 209 201 196 192 186 180 178 178 185 194 200 212 225 233 238 241 248 255 262 268 272 274 276 278 280 282 282 284 285 287 291 290 286 284 283 282 282 282
258 260 263 266 271 275 276 277 276 275 276 276 275 272 270 271 271 267 264 255 243 235 222 206 200 195 190 188 185 179 178 179 181 192 205 214 224 231 241 249 250 252 257 263 270 274 273 274 276 278 280 283 285 286 289 294 294 291 288 283 279 278 278
258 259 261 261 264 266 268 271 272 271 272 272 272 270 267 268 268 262 254 246 239 234 217 196 188 186 184 182 179 173 171 178 186 197 209 218 226 230 243 262 265 259 256 258 262 266 267 270 272 273 278 285 288 289 291 293 292 291 289 286 284 283 282
254 253 254 255 256 258 261 265 267 267 267 268 269 271 273 265 244 207 203 214 217 219 204 182 175 180 182 178 173 165 161 169 178 187 200 216 235 248 265 279 278 267 258 258 263 267 270 275 279 282 286 289 288 287 289 289 289 291 293 293 292 290 288
256 255 254 255 256 258 261 265 265 264 265 266 264 265 265 222 160 142 156 183 185 187 185 176 170 172 173 168 164 162 157 150 148 159 174 205 254 272 290 293 282 264 257 265 271 279 287 293 296 296 297 296 294 293 295 296 298 300 299 296 294 292 291
257 258 258 257 257 260 262 265 265 263 264 262 250 199 144 143 139 133 142 163 168 170 174 171 166 165 165 163 161 166 166 159 168 204 231 265 276 278 291 295 284 264 267 285 294 303 307 307 306 305 306 307 307 307 306 304 303 303 301 297 295 294 293
258 257 257 255 255 256 258 262 263 262 260 249 185 120 117 129 128 121 122 137 156 166 167 166 164 165 166 162 160 171 185 204 235 254 267 275 276 277 284 286 282 283 295 301 306 311 313 313 312 312 313 312 311 310 306 301 298 295 292 290 288 288 287
260 258 257 254 251 249 250 255 258 258 255 238 179 140 132 135 134 128 123 132 152 162 163 163 164 165 163 159 164 185 207 229 250 268 282 281 273 272 278 281 282 287 292 298 305 311 313 315 317 316 313 311 310 308 302 298 294 289 286 284 283 281 281
Height
793 795 797 799 800 801 802 803 803 804 805 805 805 806 806 806 806 806 806 806 806 806 806 807 807 808 809 810 810 811 811 812 813 814 815 815 817 818 818 818 819 819 819 819 820 821 822 822 821 820 820 819 819 819 820 820 820 820 820 820 820 821 822
793 795 797 799 800 801 802 803 804 804 805 805 806 806 807 807 807 807 807 807 807 807 807 808 809 809 810 811 811 812 813 813 814 814 815 816 817 818 819 819 819 819 819 819 819 820 820 821 821 819 818 818 817 817 818 818 818 818 818 819 819 820 821
793 795 797 798 800 801 802 803 804 805 806 806 807 807 807 808 808 808 808 808 808 808 809 810 810 811 811 812 812 813 813 814 815 815 815 816 817 817 818 819 818 818 819 820 820 820 820 820 820 818 817 816 816 816 816 816 816 817 817 817 818 819 819
792 794 795 798 800 801 802 803 804 805 806 807 807 808 808 808 809 809 809 810 810 810 811 811 811 812 812 813 813 814 814 815 815 816 816 817 817 818 818 818 819 819 819 820 821 821 821 820 820 819 817 816 816 815 815 815 815 816 816 816 816 817 817
791 793 794 797 799 801 802 803 804 805 806 807 808 808 809 809 809 810 810 811 811 811 812 812 813 813 813 814 814 815 815 815 816 816 817 817 818 819 819 819 820 819 819 820 821 821 821 821 821 820 819 818 817 816 815 815 815 815 815 815 815 815 815
791 793 794 796 798 800 802 803 804 805 806 807 808 809 809 810 811 811 811 811 812 812 812 813 813 814 814 814 815 815 816 816 817 817 818 818 819 819 820 820 820 821 821 821 822 822 822 822 822 821 821 820 820 818 817 816 815 814 813 813 813 813 814
790 792 794 796 798 800 801 802 804 805 805 807 808 808 809 810 811 812 812 813 813 813 813 814 814 814 815 815 815 816 816 817 817 818 818 819 819 820 820 821 821 822 822 822 823 822 822 822 822 823 822 822 821 819 818 816 814 813 812 812 812 813 814
790 792 794 796 798 799 801 802 804 804 805 807 807 808 809 810 812 812 813 813 813 814 814 814 815 815 816 816 816 817 817 818 818 818 819 819 820 820 820 821 822 822 823 823 823 823 823 823 823 824 824 824 823 821 819 817 815 813 813 813 813 814 815
790 792 794 796 798 799 801 802 804 805 805 806 807 808 809 811 812 812 813 814 814 814 815 815 816 816 816 817 817 817 818 818 819 819 820 820 821 821 821 822 822 823 823 824 824 824 824 824 824 825 825 825 825 824 822 820 817 816 815 814 814 815 815
790 792 794 795 797 799 801 802 804 805 805 806 807 808 810 811 812 812 813 814 814 815 815 815 816 816 817 817 817 818 818 819 819 820 820 821 821 822 822 822 823 823 823 824 824 824 824 824 824 825 825 825 826 826 826 824 821 819 818 817 816 816 815
789 792 794 795 797 799 801 802 804 805 806 807 807 808 810 811 811 812 813 813 814 814 815 815 816 816 817 817 817 818 818 819 819 820 820 821 821 822 822 823 823 823 823 824 824 824 824 825 825 825 825 825 826 826 826 826 825 821 820 819 818 817 816
790 792 793 795 797 799 801 803 804 805 806 807 807 808 809 810 811 812 812 812 813 813 814 815 815 816 816 817 817 818 818 819 819 820 820 821 821 822 822 823 823 823 823 823 824 824 824 825 825 825 825 825 825 825 825 826 825 822 821 820 819 819 818
790 792 793 795 797 799 802 804 805 806 806 807 807 807 808 809 810 811 811 812 812 813 813 814 815 815 816 816 817 817 817 818 819 819 819 820 820 821 822 822 823 823 823 823 823 824 824 825 825 825 825 825 825 825 825 825 825 822 821 821 820 819 819
790 792 793 795 796 799 801 804 806 806 806 807 807 807 808 809 809 810 810 811 811 812 812 813 814 814 814 815 815 816 816 817 818 818 819 819 820 820 821 822 822 822 823 823 823 824 824 825 825 824 825 825 825 825 825 824 824 822 820 821 820 819 819
789 791 793 795 796 798 800 803 806 807 807 807 806 806 807 808 809 810 810 810 811 811 811 812 812 813 813 814 814 815 815 816 817 817 818 818 819 820 820 821 822 822 822 823 823 823 824 824 824 824 824 825 824 825 824 824 824 822 820 820 819 819 818
787 789 792 795 795 797 799 801 804 806 807 807 806 806 806 806 808 809 810 810 810 810 810 811 811 812 812 813 813 813 814 814 816 816 816 817 818 819 819 820 821 821 822 822 823 823 823 824 824 824 824 824 824 824 824 824 823 822 820 819 818 818 817
787 787 790 792 793 795 797 798 801 804 806 806 806 806 805 805 805 806 808 809 809 810 810 810 810 811 812 812 812 813 813 814 815 815 815 816 817 817 818 819 820 820 820 821 822 822 823 823 823 823 823 823 823 823 823 822 822 821 820 818 818 817 816
788 788 788 789 790 792 794 795 799 802 803 804 804 805 804 803 802 803 804 806 807 808 808 809 809 810 811 812 813 813 813 813 814 814 814 815 816 816 817 818 819 819 819 820 820 821 821 821 821 822 822 822 822 822 821 821 821 820 819 818 817 816 816
788 789 788 788 788 790 791 793 795 798 799 799 801 803 802 800 800 801 802 804 805 806 807 807 807 808 810 812 812 813 813 814 814 814 814 814 815 815 816 817 818 818 819 819 819 820 820 820 820 821 821 821 821 821 821 820 820 820 819 818 816 815 815
787 788 788 787 788 789 791 792 793 794 796 796 797 799 799 799 799 800 801 803 804 805 806 807 807 807 808 809 811 811 812 813 813 813 813 813 814 814 815 816 816 817 818 818 819 819 819 819 820 820 820 820 820 820 820 820 820 819 818 817 816 815 813
786 787 787 786 787 788 790 791 792 792 794 794 795 796 796 796 797 798 800 802 803 803 804 805 806 807 808 808 808 809 810 811 811 812 812 812 813 813 814 815 816 816 817 817 818 818 818 818 819 819 819 819 819 819 819 819 819 819 818 816 815 814 812
785 786 786 786 787 787 788 790 790 791 792 793 793 794 794 794 794 795 796 799 802 802 800 800 801 804 807 808 807 807 808 809 810 811 812 812 813 813 813 814 815 815 816 816 817 817 817 818 817 817 817 818 818 818 818 818 818 817 817 816 814 813 812
784 785 785 786 786 787 788 788 789 790 790 791 791 791 792 792 793 793 794 796 799 799 798 798 797 799 803 805 805 805 806 808 809 810 811 811 812 812 812 813 814 814 815 815 815 816 816 816 816 816 816 816 816 817 817 817 817 816 816 815 813 812 811
784 784 785 785 786 786 787 788 788 788 788 788 789 789 789 790 790 791 792 793 795 796 795 795 795 797 799 802 803 802 803 805 808 809 810 810 811 811 812 812 812 813 813 814 814 815 815 815 815 815 815 815 815 815 815 815 815 815 814 813 812 812 810
783 784 784 785 786 786 786 787 787 787 787 787 787 787 787 788 788 790 790 791 791 792 792 792 793 795 797 799 800 799 801 803 805 807 808 809 810 810 810 811 811 811 812 812 813 813 813 813 813 813 813 813 814 814 814 814 813 813 812 811 810 810 809
783 784 784 785 785 785 786 786 786 786 786 786 786 786 786 786 787 788 788 788 788 788 788 789 790 792 794 797 798 798 799 801 803 805 807 807 809 809 809 810 810 811 811 811 811 812 812 812 812 812 812 812 812 812 812 812 811 811 810 809 808 807 807
783 783 783 784 784 784 785 784 784 784 784 785 785 785 785 785 785 786 786 786 786 786 786 787 788 790 792 794 795 796 798 800 801 804 805 806 807 808 808 809 809 810 810 810 810 811 811 811 810 810 810 810 810 810 810 810 809 808 808 807 806 805 805
782 782 783 783 783 783 784 783 783 783 783 783 784 784 784 784 784 784 784 784 785 784 784 785 787 788 789 791 793 794 796 799 800 803 804 805 805 806 807 808 808 809 809 809 809 809 809 809 809 808 809 809 808 808 808 808 807 806 805 804 803 802 801
781 781 782 782 782 783 783 782 782 782 782 782 783 782 783 782 782 782 782 782 782 782 783 784 785 786 788 789 791 792 794 797 800 801 802 803 804 805 806 807 807 807 807 807 807 807 807 807 807 807 807 806 806 806 805 805 805 804 803 802 801 800 799
780 780 781 781 781 781 781 781 781 781 781 781 781 781 781 780 780 780 780 780 780 780 781 783 784 786 787 788 790 791 792 795 798 800 802 803 804 805 806 806 806 806 806 806 805 805 806 805 805 805 804 804 804 803 802 802 802 801 801 800 799 798 797
778 779 779 779 780 780 780 780 780 780 780 779 779 779 779 778 778 778 777 777 777 778 780 782 783 786 787 788 790 791 792 795 798 800 801 802 803 804 805 805 805 805 805 804 804 804 804 803 803 803 802 802 801 800 800 800 799 798 798 797 796 795 794
777 777 778 778 778 778 779 779 779 778 778 778 777 777 777 777 776 775 775 775 776 777 779 781 783 786 787 788 790 791 793 795 797 799 800 802 802 803 804 804 803 803 803 802 802 802 801 801 801 801 801 800 799 798 798 797 796 795 794 793 792 791 790
775 775 776 776 777 777 777 777 777 777 776 776 776 775 775 774 774 773 774 774 775 777 779 781 783 785 787 788 790 792 794 795 797 798 799 800 801 802 802 802 801 801 801 800 800 800 800 800 800 799 799 798 797 796 796 794 793 792 791 789 788 788 787
773 773 774 774 774 775 775 775 775 775 775 775 774 774 773 772 772 773 774 775 776 778 779 781 783 785 787 789 790 791 793 795 796 797 798 799 800 801 802 801 800 800 800 799 799 799 799 799 798 797 797 796 795 794 793 791 790 789 788 787 786 785 784
770 771 771 772 772 773 773 773 774 773 773 773 772 772 772 772 772 773 774 775 777 778 780 781 783 785 787 789 790 791 793 795 796 797 798 799 800 800 801 801 799 799 799 798 798 798 797 797 796 795 795 794 793 792 791 789 788 787 786 785 784 783 783
768 768 769 769 770 770 771 771 771 771 772 771 771 771 772 773 773 774 775 776 778 779 781 783 784 785 787 789 791 792 794 796 797 798 799 799 799 800 801 800 799 798 797 797 797 797 796 795 794 793 793 792 791 790 789 788 786 785 784 784 783 782 781
766 766 766 767 767 767 768 769 769 769 770 770 770 771 772 773 774 775 777 778 779 781 782 783 785 787 788 790 791 793 794 796 797 797 798 798 798 799 799 799 797 796 796 796 796 795 794 794 793 792 791 790 789 788 787 786 785 784 783 782 781 780 779